FW6569 Weather Reports


time (UTC)temp
C
wind
direction
speed
KPH
gust
KPH
rain 1hr
cm
rain 24hr
cm
rain mn
cm
humidity
%
barometer
mb
20260509222528 24 221 11.3 22.5 0.00 0.61 0.48 46 1008.3
20260509221528 24 275 11.3 17.7 0.00 0.61 0.48 45 1008.4
20260509220528 24 228 12.9 19.3 0.00 0.61 0.48 45 1008.4
20260509215528 24 217 16.1 25.7 0.00 0.61 0.48 46 1008.5
20260509214528 24 219 14.5 24.1 0.00 0.61 0.48 45 1008.3
20260509213528 24 223 14.5 20.9 0.00 0.61 0.48 47 1008.4
20260509212529 23 241 12.9 17.7 0.00 0.61 0.48 52 1008.5
20260509211528 23 211 16.1 25.7 0.00 0.61 0.48 51 1008.5
20260509210528 23 204 17.7 27.4 0.00 0.61 0.48 52 1008.5
20260509205528 23 204 17.7 27.4 0.00 0.61 0.48 52 1008.5
20260509204529 23 208 16.1 22.5 0.00 0.61 0.48 52 1008.5
20260509203529 23 209 17.7 24.1 0.00 0.61 0.48 52 1008.7
20260509202608 23 221 12.9 20.9 0.00 0.61 0.48 55 1008.6
20260509201528 23 213 12.9 20.9 0.00 0.61 0.48 54 1008.7
20260509200529 23 210 14.5 17.7 0.00 0.61 0.48 54 1008.9
20260509195528 23 206 16.1 24.1 0.00 0.61 0.48 56 1009.1
20260509194529 22 218 17.7 27.4 0.00 0.61 0.48 56 1009.1
20260509193528 22 217 14.5 22.5 0.00 0.61 0.48 58 1009.1
20260509192528 22 208 14.5 22.5 0.00 0.61 0.48 58 1009.1
20260509191528 22 197 14.5 22.5 0.00 0.61 0.48 60 1009.2
20260509190528 22 208 17.7 22.5 0.00 0.61 0.48 60 1009.3
20260509185528 22 219 14.5 25.7 0.00 0.61 0.48 61 1009.4
20260509184529 22 198 16.1 20.9 0.00 0.61 0.48 61 1009.5
20260509183528 21 226 11.3 16.1 0.00 0.61 0.48 62 1009.4
20260509182519 21 218 12.9 22.5 0.00 0.61 0.48 61 1009.5
20260509181518 21 213 14.5 19.3 0.00 0.61 0.48 62 1009.5
20260509180518 21 235 9.7 16.1 0.00 0.61 0.48 63 1009.6
20260509175519 21 214 11.3 17.7 0.00 0.61 0.48 63 1009.7
20260509174518 20 212 14.5 22.5 0.00 0.61 0.48 65 1009.7
20260509173519 21 234 11.3 16.1 0.00 0.61 0.48 65 1009.9
20260509172519 21 236 8.0 16.1 0.00 0.61 0.48 64 1009.8
20260509171519 21 220 11.3 14.5 0.00 0.61 0.48 66 1009.8
20260509170519 20 217 11.3 19.3 0.00 0.61 0.48 67 1009.8
20260509165519 19 206 12.9 20.9 0.00 0.61 0.48 69 1009.9
20260509164519 19 211 11.3 17.7 0.00 0.61 0.48 68 1009.8
20260509163519 19 226 12.9 20.9 0.00 0.61 0.48 68 1009.8
20260509162539 19 219 11.3 22.5 0.00 0.61 0.48 70 1009.9
20260509161519 18 225 11.3 19.3 0.00 0.61 0.48 73 1009.9
20260509160519 17 209 12.9 17.7 0.00 0.61 0.48 75 1010.0
20260509155518 18 217 14.5 22.5 0.00 0.61 0.48 74 1009.9
20260509154519 18 200 14.5 22.5 0.00 0.61 0.48 73 1009.7
20260509153519 18 241 11.3 19.3 0.00 0.61 0.48 74 1009.6
20260509152519 17 225 12.9 17.7 0.00 0.61 0.48 75 1009.7
20260509151519 17 244 8.0 14.5 0.00 0.61 0.48 75 1009.7
20260509150519 17 214 11.3 16.1 0.00 0.61 0.48 78 1009.6
20260509145519 17 191 12.9 17.7 0.00 0.61 0.48 78 1009.5
20260509144519 17 206 14.5 20.9 0.00 0.61 0.48 78 1009.5
20260509143519 17 207 12.9 16.1 0.00 0.61 0.48 79 1009.5
20260509142519 17 189 11.3 14.5 0.00 0.61 0.48 79 1009.4
20260509141519 17 204 9.7 14.5 0.00 0.61 0.48 81 1009.3
20260509140519 16 175 11.3 16.1 0.00 0.61 0.48 82 1009.3
20260509135519 16 197 9.7 14.5 0.00 0.61 0.48 84 1009.4
20260509134540 16 215 9.7 14.5 0.00 0.61 0.48 86 1009.3
20260509133519 16 215 11.3 14.5 0.00 0.61 0.48 85 1009.2
20260509132519 16 205 8.0 11.3 0.00 0.61 0.48 87 1009.2
20260509131520 15 194 9.7 14.5 0.00 0.61 0.48 89 1009.3
20260509130519 15 203 9.7 14.5 0.00 0.61 0.48 89 1009.3
20260509125520 14 188 6.4 8.0 0.00 0.61 0.48 92 1009.2
20260509124519 13 194 6.4 9.7 0.00 0.61 0.48 94 1009.2
20260509123539 13 207 4.8 8.0 0.00 0.61 0.48 97 1009.1
20260509122519 13 207 3.2 8.0 0.00 0.61 0.48 97 1009.0
20260509121519 12 175 4.8 6.4 0.03 0.61 0.48 98 1008.9
20260509120520 12 201 3.2 4.8 0.03 0.61 0.48 99 1008.8
20260509115520 12 192 4.8 6.4 0.03 0.61 0.48 99 1008.9
20260509114519 12 214 3.2 6.4 0.03 0.61 0.48 99 1008.9
20260509113519 12 186 3.2 6.4 0.03 0.61 0.48 99 1008.8
20260509112520 12 185 3.2 6.4 0.03 0.61 0.48 99 1008.6
20260509111520 12 196 6.4 8.0 0.00 0.58 0.46 99 1008.6
20260509110520 12 175 1.6 3.2 0.00 0.58 0.46 99 1008.5
20260509105519 12 110 0.0 3.2 0.00 0.58 0.46 99 1008.4
20260509104520 12 62 0.0 3.2 0.00 0.58 0.46 99 1008.3
20260509103520 12 155 3.2 6.4 0.00 0.58 0.46 99 1008.3
20260509102520 12 161 1.6 3.2 0.03 0.58 0.46 99 1008.4
20260509101520 12 170 1.6 3.2 0.03 0.58 0.46 99 1008.6
20260509100540 12 187 1.6 4.8 0.08 0.58 0.46 99 1008.9
20260509095519 12 181 3.2 4.8 0.10 0.58 0.46 99 1008.8
20260509094520 12 0.0 0.0 0.10 0.58 0.46 98 1008.9
20260509093520 12 0.0 0.0 0.10 0.58 0.46 98 1009.2
20260509092520 12 203 1.6 3.2 0.10 0.56 0.43 98 1009.3
20260509091701 12 0.0 1.6 0.13 0.56 0.43 98 1009.2
20260509090520 12 203 3.2 4.8 0.13 0.51 0.38 98 1009.4
20260509085520 12 0.0 0.0 0.10 0.48 0.36 98 1009.3
20260509084520 12 89 1.6 4.8 0.13 0.48 0.36 98 1009.4
20260509083540 12 0.0 0.0 0.15 0.48 0.36 98 1009.5
20260509082600 12 152 0.0 3.2 0.15 0.46 0.33 98 1009.7
20260509081520 12 0.0 0.0 0.15 0.43 0.30 98 1009.7
20260509080520 12 0.0 0.0 0.13 0.38 0.25 98 1009.8
20260509075520 12 0.0 0.0 0.15 0.38 0.25 98 1009.8
20260509074540 12 0.0 0.0 0.13 0.36 0.23 98 1009.7
20260509073520 12 133 1.6 3.2 0.10 0.33 0.20 98 1010.0
20260509072521 12 0.0 1.6 0.08 0.30 0.18 98 1010.1
20260509071520 12 0.0 0.0 0.05 0.28 0.15 97 1010.2
20260509070520 12 0.0 0.0 0.05 0.25 0.13 97 1010.1
20260509065520 12 127 1.6 3.2 0.05 0.23 0.10 97 1010.0
20260509064520 12 0.0 0.0 0.05 0.23 0.10 97 1010.2
20260509063540 12 0.0 0.0 0.08 0.23 0.10 97 1010.3
20260509062600 12 0.0 0.0 0.08 0.23 0.10 97 1010.5
20260509061520 12 0.0 0.0 0.08 0.23 0.10 97 1010.5
20260509060520 12 0.0 0.0 0.05 0.20 0.08 97 1010.8
20260509055520 12 0.0 0.0 0.03 0.18 0.05 97 1010.9
20260509054520 12 0.0 0.0 0.03 0.18 0.05 97 1010.9
20260509053601 12 0.0 0.0 0.00 0.15 0.03 97 1010.8
20260509052520 12 25 0.0 1.6 0.00 0.15 0.03 97 1010.7
20260509051520 12 343 1.6 4.8 0.00 0.15 0.03 97 1010.6
20260509050540 12 3 0.0 3.2 0.03 0.15 0.03 96 1010.5
20260509045520 12 3 0.0 3.2 0.03 0.15 0.03 96 1010.4
20260509044520 12 357 1.6 4.8 0.03 0.15 0.03 96 1010.3
20260509043540 12 353 4.8 8.0 0.03 0.15 0.03 96 1010.3
20260509042520 12 338 0.0 4.8 0.05 0.15 0.03 96 1010.5
20260509041521 12 357 3.2 4.8 0.05 0.15 0.03 96 1010.6
20260509040520 12 357 0.0 3.2 0.05 0.13 0.00 96 1010.7
20260509035520 12 358 1.6 4.8 0.05 0.13 0.13 95 1010.7
20260509034521 12 6 1.6 4.8 0.08 0.13 0.13 95 1010.9
20260509033540 12 354 1.6 3.2 0.08 0.13 0.13 95 1011.1
20260509032541 12 12 1.6 3.2 0.08 0.10 0.10 94 1011.2
20260509031520 12 0.0 0.0 0.10 0.10 0.10 93 1011.3
20260509030520 12 0.0 0.0 0.08 0.08 0.08 93 1011.3
20260509025521 12 0.0 0.0 0.08 0.08 0.08 93 1011.3
20260509024541 12 0.0 0.0 0.05 0.05 0.05 92 1011.3
20260509023520 12 0.0 0.0 0.05 0.05 0.05 92 1011.1
20260509022521 13 21 0.0 4.8 0.03 0.03 0.03 91 1011.3
20260509021520 13 8 3.2 6.4 0.00 0.00 0.00 91 1011.3
20260509020521 13 8 4.8 11.3 0.00 0.00 0.00 90 1011.5
20260509015520 13 360 4.8 8.0 0.00 0.00 0.00 88 1011.6
20260509014521 13 351 3.2 9.7 0.00 0.00 0.00 87 1011.4
20260509013521 13 359 6.4 14.5 0.00 0.00 0.00 85 1011.1
20260509012521 14 5 4.8 9.7 0.00 0.00 0.00 83 1011.1
20260509011521 14 346 4.8 9.7 0.00 0.00 0.00 80 1011.0
20260509010541 15 332 3.2 9.7 0.00 0.00 0.00 77 1010.7
20260509005520 15 348 3.2 6.4 0.00 0.00 0.00 74 1010.3
20260509004521 15 345 1.6 8.0 0.00 0.00 0.00 71 1010.2
20260509003521 16 7 6.4 9.7 0.00 0.00 0.00 70 1010.2
20260509002521 16 348 1.6 6.4 0.00 0.00 0.00 68 1010.3
20260509001521 16 360 1.6 3.2 0.00 0.00 0.00 64 1010.2
20260509000521 17 0.0 0.0 0.00 0.00 0.00 65 1010.3
20260508235521 17 0.0 0.0 0.00 0.00 0.00 62 1010.3
20260508234601 17 323 0.0 1.6 0.00 0.00 0.00 59 1010.2
20260508233521 17 188 3.2 4.8 0.00 0.00 0.00 58 1010.2
20260508232521 17 0.0 0.0 0.00 0.00 0.00 60 1010.3
20260508231521 18 226 4.8 6.4 0.00 0.00 0.00 55 1010.2
20260508230521 18 207 3.2 8.0 0.00 0.00 0.00 56 1010.2
20260508225521 18 245 4.8 11.3 0.00 0.00 0.00 55 1010.2
20260508224521 18 207 4.8 6.4 0.00 0.00 0.00 57 1010.2
20260508223521 17 265 1.6 3.2 0.00 0.00 0.00 59 1010.2